Date,TemperatureHighF,TemperatureAvgF,TemperatureLowF,DewpointHighF,DewpointAvgF,DewpointLowF,HumidityHigh,HumidityAvg,HumidityLow,PressureMaxIn,PressureMinIn,WindSpeedMaxMPH,WindSpeedAvgMPH,GustSpeedMaxMPH,PrecipitationSumIn
2013-1-1,41.7,39.0,33.6,24.1,20.3,11.2,50,47,38,29.91,29.77,15,6,21,0.03
2013-1-2,36.5,31.8,28.2,11.9,9.2,6.9,41,38,32,30.09,29.88,21,7,24,0.00
2013-1-3,37.0,32.0,27.7,13.7,10.1,8.0,46,40,32,30.09,30.00,14,6,18,0.00
2013-1-4,39.7,36.3,33.4,15.6,14.2,12.4,43,40,37,30.03,29.91,21,7,24,0.00
2013-1-5,44.2,36.9,32.7,19.8,15.4,12.8,50,41,36,30.24,29.94,18,5,24,0.00
2013-1-6,48.4,40.9,35.4,36.4,26.8,19.2,94,60,37,30.12,29.88,12,2,15,0.07
2013-1-7,47.1,42.1,37.4,24.4,22.5,20.4,54,46,36,30.30,29.97,18,4,20,0.00
2013-1-8,47.7,40.3,34.0,29.9,26.3,21.5,76,58,44,30.33,30.24,18,2,21,0.00
2013-1-9,49.6,44.3,37.0,35.7,31.9,27.5,77,62,51,30.27,30.06,20,3,22,0.00
2013-1-10,51.3,45.6,41.5,31.2,21.5,19.0,56,38,32,30.42,30.18,20,5,21,0.00
2013-1-11,48.4,44.5,40.1,46.3,31.7,18.7,95,63,37,30.39,29.94,12,1,12,0.49
2013-1-12,52.0,48.4,45.9,48.2,46.2,43.6,100,93,74,30.06,29.94,6,1,9,0.00
2013-1-13,52.3,49.2,46.4,52.3,49.1,46.4,100,100,98,30.03,29.85,4,0,6,0.01
2013-1-14,55.9,53.1,43.7,55.6,45.4,29.4,100,79,44,30.18,29.83,16,3,18,0.22
2013-1-15,43.7,40.4,37.9,38.9,28.0,22.2,84,62,47,30.24,30.09,12,3,17,0.32
2013-1-16,40.5,38.0,36.1,39.8,36.9,33.7,98,96,84,30.09,29.71,14,2,18,0.90
2013-1-17,43.5,41.5,39.9,39.3,27.6,21.2,93,60,41,30.00,29.83,19,5,22,0.00
2013-1-18,39.9,34.4,30.9,24.1,11.7,4.2,56,39,30,30.39,29.88,26,7,34,0.00
2013-1-19,49.6,40.0,32.0,25.5,20.3,9.9,61,46,35,30.33,29.83,22,8,26,0.00
2013-1-20,55.4,44.6,33.8,26.4,19.9,5.7,55,38,26,29.94,29.65,27,12,40,0.00
2013-1-21,37.0,32.7,27.9,26.8,8.0,2.1,82,36,30,30.00,29.74,22,5,26,0.00
2013-1-22,28.0,22.1,17.2,6.8,-1.9,-6.4,41,34,32,30.15,29.77,27,12,34,0.00
2013-1-23,23.5,19.3,16.0,-1.8,-4.7,-7.4,35,34,32,30.21,30.06,18,6,24,0.00
2013-1-24,27.1,22.0,17.8,0.7,-2.6,-5.3,36,33,31,30.33,30.03,26,9,32,0.00
2013-1-25,27.3,21.6,17.6,15.3,2.7,-6.4,72,46,31,30.36,29.97,22,4,28,0.00
2013-1-26,28.8,23.6,19.0,11.8,7.4,3.6,68,51,39,30.30,29.94,19,7,22,0.05
2013-1-27,36.0,28.3,21.4,12.8,8.5,3.8,51,43,37,30.45,30.30,14,4,20,0.01
2013-1-28,38.1,34.6,29.8,38.1,28.6,12.6,100,80,48,30.39,29.91,13,3,20,0.21
2013-1-29,51.3,44.1,36.9,47.0,42.2,36.6,100,93,75,30.03,29.88,6,0,6,0.00
2013-1-30,63.5,53.9,42.6,61.5,52.3,42.6,100,95,76,29.91,29.21,18,4,25,0.32
2013-1-31,58.6,46.0,32.9,58.4,27.1,7.0,99,52,28,29.74,28.97,31,14,41,0.95
2013-2-1,33.1,30.4,24.6,20.2,5.9,-0.4,69,35,31,30.18,29.74,30,11,33,0.00
2013-2-2,33.6,27.0,21.4,24.2,6.0,-1.9,82,42,31,30.21,29.91,18,7,22,0.00
2013-2-3,33.3,30.3,27.1,26.1,19.6,15.3,86,65,49,29.91,29.71,18,2,20,0.01
2013-2-4,32.5,29.1,24.3,19.9,9.0,5.5,61,42,36,29.94,29.74,20,7,33,0.01
2013-2-5,35.1,33.0,30.4,33.5,27.6,20.1,94,80,62,29.85,29.77,11,2,12,0.00
2013-2-6,40.3,35.7,32.2,33.7,22.2,11.0,94,62,37,30.24,29.80,20,5,24,0.02
2013-2-7,37.2,33.1,29.5,18.0,10.8,5.5,50,39,32,30.39,30.15,13,4,16,0.00
2013-2-8,40.1,37.0,34.3,38.9,33.4,18.0,100,88,50,30.15,29.56,24,11,31,0.33
2013-2-9,35.4,30.9,26.2,33.9,15.3,3.7,97,55,36,30.27,29.65,34,15,43,0.02
2013-2-10,39.4,30.8,22.6,18.8,8.8,3.3,51,40,29,30.39,30.18,18,4,21,0.01
2013-2-11,50.9,42.7,34.9,50.9,39.8,19.1,100,91,52,30.18,29.53,18,3,22,0.46
2013-2-12,48.9,43.1,38.5,38.8,21.4,16.1,77,43,29,29.85,29.65,31,8,31,0.00
2013-2-13,45.5,39.0,34.0,35.6,22.4,17.5,98,54,36,29.85,29.56,12,3,18,0.18
2013-2-14,48.6,40.8,36.0,35.7,28.9,21.4,97,66,37,29.91,29.59,12,3,18,0.02
2013-2-15,55.6,44.7,36.3,35.0,29.1,21.2,86,58,34,29.91,29.80,20,4,26,0.00
2013-2-16,41.5,37.7,32.9,35.2,22.2,8.9,87,56,36,29.88,29.65,18,8,27,0.04
2013-2-17,33.4,29.8,23.7,10.2,3.4,-1.8,39,32,31,29.97,29.62,35,15,35,0.00
2013-2-18,37.2,29.3,22.3,10.7,3.7,-2.3,38,33,30,30.21,29.97,26,9,35,0.00
2013-2-19,46.0,39.8,31.8,46.0,28.0,10.1,100,65,38,30.09,29.59,22,5,32,0.26
2013-2-20,38.8,32.8,27.3,23.7,8.6,2.7,55,36,30,29.94,29.68,34,12,37,0.00
2013-2-21,37.0,31.1,26.4,10.6,7.4,2.5,41,36,32,30.18,29.91,33,13,35,0.00
2013-2-22,39.4,33.2,26.2,32.4,15.8,7.1,83,49,38,30.30,30.12,13,4,18,0.00
2013-2-23,48.6,42.4,36.7,48.6,42.1,32.2,100,99,83,30.15,29.68,15,4,26,0.15
2013-2-24,48.2,41.4,35.2,40.0,27.1,13.4,96,61,36,29.91,29.65,29,9,35,0.00
2013-2-25,46.0,39.8,33.1,21.2,17.9,13.6,50,41,36,30.12,29.91,16,6,20,0.00
2013-2-26,46.4,40.0,34.2,37.2,26.7,20.3,90,60,42,30.12,29.65,20,6,27,0.45
2013-2-27,52.7,44.9,39.9,50.5,35.5,27.9,100,73,46,29.65,29.38,23,8,29,0.21
2013-2-28,48.4,45.4,39.7,33.2,26.1,20.6,65,47,35,29.53,29.47,18,6,26,0.00
2013-3-1,46.9,41.4,37.2,26.4,22.2,18.2,64,47,36,29.71,29.53,22,9,27,0.00
2013-3-2,44.1,38.2,34.9,19.2,16.1,13.0,48,40,36,29.71,29.59,20,10,25,0.00
2013-3-3,39.4,35.1,30.4,15.0,12.3,9.1,45,39,34,29.68,29.59,26,12,33,0.00
2013-3-4,41.7,36.2,32.5,15.4,13.0,10.4,43,38,34,29.85,29.68,25,12,32,0.00
2013-3-5,49.8,40.4,33.1,22.4,18.2,14.3,53,41,32,29.91,29.83,18,6,26,0.00
2013-3-6,41.7,39.8,36.9,36.8,30.2,22.4,89,69,50,29.83,29.62,38,15,45,0.16
2013-3-7,48.6,41.5,37.0,29.0,21.6,18.1,72,46,35,29.97,29.80,23,11,33,0.00
2013-3-8,45.1,37.7,32.9,33.1,26.6,18.0,89,67,40,30.09,29.91,24,12,29,0.12
2013-3-9,59.7,47.0,35.1,27.8,20.5,15.9,47,36,27,30.18,30.06,17,6,23,0.01
2013-3-10,59.7,47.2,37.6,32.0,26.4,17.3,72,46,30,30.24,30.12,12,3,14,0.00
2013-3-11,60.8,49.6,41.0,48.2,39.2,30.6,91,70,34,30.18,29.94,10,2,14,0.00
2013-3-12,60.1,53.5,45.1,60.1,48.0,29.0,100,83,51,29.94,29.56,23,8,27,1.00
2013-3-13,57.2,45.4,38.7,29.1,23.4,15.1,54,42,30,29.83,29.71,23,9,28,0.02
2013-3-14,44.1,38.3,33.8,16.8,13.1,9.8,40,35,31,29.88,29.80,33,13,38,0.00
2013-3-15,50.5,41.9,32.5,22.0,15.5,7.0,38,34,32,29.91,29.62,24,8,28,0.00
2013-3-16,47.1,39.9,35.2,35.8,27.0,16.7,100,65,36,29.80,29.62,15,6,20,0.14
2013-3-17,41.7,36.9,32.9,32.8,19.7,12.8,87,52,36,30.18,29.80,20,6,23,0.09
2013-3-18,42.1,36.6,32.7,38.5,21.6,9.9,100,59,37,30.27,29.77,18,8,24,0.62
2013-3-19,51.1,43.1,38.5,41.2,32.0,15.8,100,72,32,29.80,29.59,29,9,37,0.31
2013-3-20,51.8,43.0,35.1,22.7,17.2,12.8,42,35,31,29.83,29.65,24,8,27,0.00
2013-3-21,44.8,36.6,32.4,25.9,15.9,8.4,73,44,33,29.71,29.56,20,10,27,0.00
2013-3-22,43.9,36.8,30.9,18.7,13.7,8.2,45,38,36,29.83,29.68,23,10,28,0.00
2013-3-23,50.0,41.1,33.4,21.3,15.6,12.0,44,35,29,29.83,29.74,24,11,32,0.00
2013-3-24,49.8,42.2,35.4,19.3,15.7,11.1,41,34,29,29.85,29.56,18,4,20,0.00
2013-3-25,41.0,37.8,34.9,36.8,31.4,19.0,100,80,41,29.59,29.35,24,8,28,0.55
2013-3-26,53.2,44.3,37.0,36.4,29.7,22.8,94,61,34,29.80,29.50,21,7,29,0.01
2013-3-27,54.5,45.7,39.0,28.9,25.0,21.2,62,45,33,29.91,29.80,23,9,34,0.00
2013-3-28,50.2,45.3,39.0,24.3,22.5,21.1,51,41,34,30.03,29.88,20,10,26,0.00
2013-3-29,56.5,49.0,40.5,27.3,22.6,19.7,47,36,28,30.06,29.97,19,9,22,0.00
2013-3-30,61.9,51.5,41.2,28.1,23.9,20.3,48,35,27,30.06,29.97,19,4,20,0.00
2013-3-31,58.6,50.7,43.3,50.5,34.2,22.7,96,56,32,30.03,29.59,16,4,20,0.20
2013-4-1,64.2,53.0,43.2,49.6,35.7,14.6,94,58,30,29.83,29.53,25,8,31,0.00
2013-4-2,49.1,42.6,37.4,18.2,12.9,8.1,32,30,27,30.00,29.83,24,10,29,0.00
2013-4-3,50.2,42.3,36.1,18.4,11.9,7.7,30,28,27,30.21,30.00,27,10,34,0.00
2013-4-4,55.9,44.6,34.5,23.3,15.1,6.3,40,30,26,30.30,29.97,16,5,20,0.00
2013-4-5,63.9,51.9,41.7,38.8,28.4,15.2,88,45,25,29.97,29.62,21,7,33,0.08
2013-4-6,55.0,46.6,37.8,25.4,17.7,10.6,46,32,26,30.18,29.88,17,7,26,0.00
2013-4-7,64.0,52.9,42.4,40.0,31.6,23.4,63,46,32,30.18,29.88,22,5,25,0.00
2013-4-8,77.5,64.7,52.7,46.2,40.9,36.8,65,44,28,29.94,29.83,15,3,18,0.00
2013-4-9,85.3,72.6,60.8,48.8,44.5,38.3,63,39,22,29.88,29.77,24,6,26,0.00
2013-4-10,90.7,75.3,64.9,64.1,48.4,41.8,96,42,23,29.80,29.62,25,6,31,0.44
2013-4-11,72.1,63.2,51.8,65.2,53.9,41.3,97,73,50,29.83,29.65,20,5,23,0.02
2013-4-12,51.8,48.1,45.5,49.1,46.9,43.3,100,96,73,29.83,29.56,20,8,22,1.18
2013-4-13,63.1,54.5,45.3,49.7,36.8,27.5,100,58,32,29.85,29.62,22,4,26,0.01
2013-4-14,63.1,56.8,48.7,37.3,29.2,25.7,57,36,26,30.03,29.85,24,5,28,0.00
2013-4-15,59.9,53.8,48.6,39.0,32.0,23.8,56,44,34,30.24,30.03,10,4,14,0.00
2013-4-16,74.3,62.2,50.0,52.6,45.2,37.1,81,56,38,30.21,29.97,21,5,25,0.00
2013-4-17,71.6,64.1,58.8,57.3,44.9,35.4,84,53,30,30.15,29.97,21,4,21,0.00
2013-4-18,64.8,59.8,54.3,58.7,47.6,34.1,94,65,43,30.18,29.94,13,3,14,0.00
2013-4-19,77.5,68.3,59.2,66.0,59.9,52.9,100,77,46,29.94,29.50,24,6,34,0.42
2013-4-20,61.0,55.5,49.5,54.5,32.1,18.5,85,44,27,30.18,29.59,25,10,26,0.18
2013-4-21,56.3,48.4,39.6,23.6,19.0,11.9,37,31,28,30.47,30.18,18,6,28,0.00
2013-4-22,55.0,48.8,41.4,36.1,26.9,22.3,64,43,34,30.50,30.33,20,7,28,0.00
2013-4-23,52.5,48.6,44.2,38.8,33.7,28.1,64,56,45,30.33,30.00,17,8,22,0.00
2013-4-24,72.0,58.6,47.3,52.0,43.2,35.7,74,58,40,30.00,29.68,18,5,24,0.00
2013-4-25,65.8,58.0,47.3,52.0,28.7,23.5,67,33,26,30.15,29.77,29,9,35,0.00
2013-4-26,68.7,59.9,51.3,31.5,28.0,23.5,41,30,25,30.30,30.15,18,5,20,0.00
2013-4-27,73.2,61.9,50.9,34.3,27.7,21.3,34,27,24,30.33,30.15,12,3,15,0.00
2013-4-28,76.5,64.5,53.8,39.1,34.1,27.5,52,33,23,30.18,30.06,16,4,19,0.00
2013-4-29,62.2,59.3,57.2,60.1,53.5,33.4,100,84,36,30.09,30.00,11,2,12,0.30
2013-4-30,71.2,61.5,54.9,56.8,41.1,25.6,100,54,25,30.18,30.03,14,4,22,0.02
2013-5-1,70.5,60.2,50.2,39.7,31.9,26.8,53,35,25,30.33,30.18,22,6,22,0.00
2013-5-2,73.9,63.3,50.9,42.0,36.7,31.2,70,40,24,30.33,30.21,12,3,18,0.00
2013-5-3,67.1,60.3,53.1,40.6,34.6,28.3,60,39,26,30.30,30.21,19,5,21,0.00
2013-5-4,71.8,60.1,49.8,42.9,37.3,30.9,76,46,25,30.24,30.09,14,5,17,0.00
2013-5-5,65.7,57.0,49.3,39.0,34.9,31.4,65,45,31,30.15,30.06,17,5,19,0.00
2013-5-6,71.1,59.5,50.2,49.7,45.4,38.9,80,61,40,30.12,30.00,14,5,18,0.00
2013-5-7,71.2,63.0,56.1,63.4,55.5,48.8,100,78,50,30.03,29.91,14,6,22,0.11
2013-5-8,77.2,67.6,62.6,64.6,58.2,47.7,100,76,37,29.91,29.80,12,3,17,0.22
2013-5-9,73.6,67.3,60.1,60.1,53.5,46.4,98,64,39,29.85,29.77,15,3,18,0.60
2013-5-10,87.4,75.1,63.5,64.1,53.0,46.8,84,51,26,29.88,29.77,27,4,27,0.14
2013-5-11,79.7,71.2,67.1,66.8,62.8,54.1,94,77,42,29.80,29.56,18,4,21,0.50
2013-5-12,70.3,64.7,57.0,61.6,39.4,23.5,83,43,25,29.85,29.56,25,9,31,0.05
2013-5-13,61.5,56.3,50.4,28.9,25.1,21.0,36,30,27,30.00,29.85,24,8,29,0.00
2013-5-14,66.7,57.4,45.5,31.9,27.9,24.2,49,33,25,30.03,29.91,18,6,25,0.00
2013-5-15,76.8,67.4,58.3,57.1,45.4,31.2,61,46,32,29.94,29.56,15,4,20,0.00
2013-5-16,83.5,74.5,66.4,62.6,55.9,49.5,78,55,35,29.71,29.59,14,3,16,0.01
2013-5-17,77.7,71.4,63.5,52.2,37.5,33.1,48,29,23,30.06,29.71,25,6,25,0.00
2013-5-18,72.1,65.9,60.6,60.8,47.4,35.8,98,55,32,30.15,30.06,10,3,12,0.18
2013-5-19,65.8,63.1,60.1,65.7,62.1,58.0,100,97,90,30.15,30.03,10,1,12,0.05
2013-5-20,81.9,71.9,63.1,69.1,63.4,58.2,100,78,47,30.03,29.85,11,2,18,0.00
2013-5-21,87.1,78.4,70.7,69.4,64.3,59.0,92,65,40,29.85,29.74,18,5,18,0.00
2013-5-22,91.6,80.1,73.2,71.1,66.6,59.6,87,66,36,29.80,29.68,17,5,18,0.00
2013-5-23,86.5,76.9,70.2,72.3,66.9,58.3,88,73,39,29.77,29.62,18,6,23,0.20
2013-5-24,70.2,60.6,50.4,67.8,51.1,32.8,94,72,45,29.91,29.59,27,9,40,0.14
2013-5-25,64.6,57.5,50.0,38.4,32.3,26.9,62,40,26,29.94,29.85,29,14,37,0.00
2013-5-26,72.0,63.7,54.0,33.8,30.9,27.6,40,30,24,30.09,29.91,26,9,30,0.00
2013-5-27,81.0,69.0,56.5,39.3,35.0,27.1,47,29,22,30.15,30.03,17,4,17,0.00
2013-5-28,69.8,67.2,64.8,66.7,56.0,36.3,98,71,31,30.06,29.97,7,1,8,0.23
2013-5-29,92.5,78.6,64.6,70.4,61.2,52.9,99,62,27,29.97,29.88,13,4,18,0.00
2013-5-30,96.3,85.4,74.5,66.9,59.3,49.8,76,46,22,30.03,29.94,15,5,16,0.00
2013-5-31,97.7,86.5,76.6,67.6,59.1,48.0,73,43,22,30.00,29.88,18,5,19,0.00
2013-6-1,95.9,85.4,74.8,66.2,60.1,52.2,74,46,24,29.91,29.77,18,7,22,0.00
2013-6-2,93.9,84.0,76.3,67.6,62.2,56.2,74,50,29,29.80,29.65,20,9,26,0.00
2013-6-3,83.5,76.3,72.1,73.2,68.8,58.0,100,79,50,29.74,29.68,18,2,18,0.73
2013-6-4,79.0,71.3,61.7,60.6,41.0,35.3,69,35,25,29.97,29.74,21,6,26,0.00
2013-6-5,83.7,72.6,62.2,49.9,38.3,32.0,54,30,22,30.06,29.94,12,3,12,0.00
2013-6-6,80.1,70.4,61.2,62.3,53.3,42.6,88,58,29,30.00,29.83,13,4,17,0.04
2013-6-7,68.5,67.3,63.7,68.5,67.1,62.1,100,99,86,29.83,29.44,20,4,22,3.61
2013-6-8,79.2,71.6,63.3,67.0,60.3,53.5,100,71,42,29.94,29.44,16,5,24,0.28
2013-6-9,87.3,77.6,67.3,61.1,53.1,46.5,67,45,26,30.06,29.94,12,3,14,0.00
2013-6-10,76.5,73.4,70.2,75.2,68.7,58.7,100,86,57,30.00,29.65,12,3,17,2.22
2013-6-11,84.4,77.4,71.2,73.9,62.2,52.6,100,64,38,29.65,29.56,20,8,24,0.05
2013-6-12,87.8,78.6,70.7,57.2,50.5,44.5,62,39,26,29.71,29.65,21,7,27,0.00
2013-6-13,84.2,75.0,65.3,72.3,59.2,46.4,96,60,41,29.71,29.26,14,4,20,0.66
2013-6-14,77.5,66.6,58.6,62.1,50.9,40.8,94,60,31,29.80,29.35,20,7,26,0.10
2013-6-15,86.2,75.7,64.9,55.5,49.3,43.9,69,43,26,29.91,29.80,17,5,21,0.00
2013-6-16,86.4,77.1,70.3,66.0,56.0,47.2,74,50,28,29.88,29.68,21,4,25,0.01
2013-6-17,91.2,80.1,72.1,66.7,61.5,54.8,81,56,31,29.80,29.71,13,4,18,0.00
2013-6-18,83.3,74.1,68.2,69.5,64.6,57.6,94,74,44,29.77,29.68,11,2,15,0.55
2013-6-19,81.5,72.6,64.2,65.4,50.2,40.0,92,51,25,30.03,29.74,16,6,20,0.00
2013-6-20,88.7,76.4,66.4,57.3,48.9,43.2,70,40,26,30.15,30.03,14,4,16,0.00
2013-6-21,89.8,77.4,67.3,52.8,47.2,40.2,56,36,23,30.18,30.09,12,3,16,0.00
2013-6-22,90.7,79.2,68.4,61.2,55.8,48.9,75,47,27,30.15,29.97,14,4,17,0.00
2013-6-23,93.0,80.6,72.1,76.3,64.8,55.2,85,61,32,30.06,29.91,16,4,19,0.17
2013-6-24,96.6,82.2,75.7,74.9,68.8,57.9,92,68,28,29.97,29.85,14,4,18,0.55
2013-6-25,94.8,82.3,73.6,72.8,66.3,55.0,92,63,27,29.88,29.71,17,3,22,0.14
2013-6-26,95.5,82.4,73.0,74.2,64.8,57.1,87,59,28,29.77,29.65,16,4,41,0.56
2013-6-27,92.5,82.2,76.1,77.7,69.6,60.9,100,70,37,29.68,29.44,21,4,24,0.71
2013-6-28,90.1,79.6,74.1,73.8,68.1,59.7,92,71,37,29.44,29.35,14,5,18,0.10
2013-6-29,92.1,82.1,72.7,72.1,63.0,51.7,94,58,27,29.56,29.35,16,4,17,0.00
2013-6-30,87.8,79.9,76.8,75.8,72.9,67.7,91,80,52,29.77,29.56,9,3,13,0.13
2013-7-1,80.4,78.3,76.8,77.8,75.5,73.6,96,91,82,29.88,29.74,12,4,16,0.24
2013-7-2,88.5,79.8,76.3,77.5,73.5,65.9,96,83,49,30.06,29.88,18,6,20,0.07
2013-7-3,89.2,81.2,74.8,77.8,72.9,68.0,97,78,50,30.12,30.03,12,4,18,0.00
2013-7-4,90.5,83.5,77.9,77.0,71.2,62.7,96,69,42,30.12,30.03,18,5,20,0.00
2013-7-5,96.3,86.3,77.0,76.2,69.0,58.1,94,60,31,30.09,29.97,21,7,21,0.00
2013-7-6,97.0,87.6,79.5,76.9,69.8,62.0,90,59,33,30.03,29.91,16,6,18,0.00
2013-7-7,99.1,87.8,78.6,73.5,68.2,59.3,81,56,30,29.94,29.83,18,6,31,0.06
2013-7-8,92.8,82.2,75.6,68.8,64.7,51.2,78,58,31,29.94,29.85,18,4,21,0.00
2013-7-9,92.8,84.3,77.2,72.1,66.8,61.2,81,57,37,29.94,29.85,17,4,18,0.00
2013-7-10,93.7,85.5,79.0,76.2,69.6,62.0,87,61,37,29.88,29.68,20,6,22,0.00
2013-7-11,89.6,82.6,79.2,74.4,66.9,56.1,85,62,36,29.77,29.68,14,6,18,0.01
2013-7-12,80.6,76.2,71.4,73.1,63.5,54.6,100,67,42,29.91,29.77,19,8,20,0.83
2013-7-13,91.2,79.4,71.6,79.0,73.3,65.4,100,84,43,30.15,29.88,12,3,14,1.98
2013-7-14,94.3,84.5,77.5,79.0,70.7,58.2,100,68,35,30.21,30.12,13,4,13,0.00
2013-7-15,99.0,87.9,78.4,75.1,66.8,56.4,81,54,26,30.15,30.00,16,6,20,0.00
2013-7-16,96.6,89.1,81.1,70.0,60.1,52.6,66,40,24,30.06,30.00,18,6,25,0.00
2013-7-17,99.3,90.4,81.3,71.1,61.8,54.1,66,41,24,30.06,29.94,12,4,17,0.00
2013-7-18,102.4,92.1,83.7,72.1,66.2,57.7,67,45,24,29.94,29.83,14,5,18,0.00
2013-7-19,101.3,92.5,84.2,80.1,71.5,61.3,86,54,28,29.85,29.68,20,7,24,0.00
2013-7-20,97.5,88.8,76.5,75.5,64.2,59.5,95,46,29,29.74,29.62,18,7,26,1.01
2013-7-21,91.8,82.5,78.1,75.8,68.8,61.0,91,66,37,29.80,29.71,17,3,20,0.00
2013-7-22,91.9,81.5,76.3,75.3,70.5,61.9,87,71,41,29.80,29.65,13,4,20,0.00
2013-7-23,91.0,81.8,74.8,78.3,71.4,61.4,100,74,39,29.65,29.47,24,4,24,3.19
2013-7-24,83.3,79.4,70.5,67.8,58.6,45.9,69,50,36,29.80,29.50,18,6,24,0.00
2013-7-25,75.0,69.8,64.8,57.7,49.3,45.4,67,49,40,29.91,29.80,18,7,20,0.00
2013-7-26,87.1,76.8,67.1,58.0,51.7,45.6,72,45,27,29.91,29.85,13,5,18,0.00
2013-7-27,91.0,80.7,73.0,69.3,59.9,50.9,82,53,27,29.91,29.80,18,4,18,0.00
2013-7-28,85.8,76.8,70.9,75.1,68.2,62.6,100,76,51,29.83,29.74,13,4,16,1.72
2013-7-29,88.7,77.8,71.2,72.5,58.9,44.5,100,60,24,30.00,29.83,15,4,20,0.14
2013-7-30,88.0,78.0,69.1,52.9,49.2,45.4,53,38,26,30.06,29.97,16,5,22,0.00
2013-7-31,89.6,79.5,70.7,62.0,54.6,47.8,68,44,26,30.03,29.88,12,2,14,0.00
2013-8-1,77.4,73.9,70.9,75.6,68.9,59.4,100,86,55,29.91,29.68,9,3,14,0.86
2013-8-2,89.2,79.8,71.1,72.4,61.9,50.3,100,61,27,29.80,29.68,14,4,18,0.00
2013-8-3,81.5,77.1,73.8,68.6,63.1,56.9,78,63,44,29.80,29.77,12,4,17,0.00
2013-8-4,83.8,75.9,68.9,65.5,53.1,43.4,84,49,28,29.85,29.74,27,6,27,0.00
2013-8-5,83.8,74.9,66.4,49.4,44.7,40.2,53,35,24,29.94,29.85,15,5,18,0.00
2013-8-6,82.6,74.7,68.5,66.0,55.3,46.5,80,52,30,29.97,29.91,12,3,15,0.01
2013-8-7,78.1,74.4,70.5,71.6,67.4,62.0,87,79,58,30.00,29.91,12,3,13,0.02
2013-8-8,90.3,79.9,73.6,76.9,71.9,65.8,99,79,47,29.91,29.85,20,4,22,0.25
2013-8-9,88.2,81.4,77.5,79.4,74.5,69.1,94,80,54,29.88,29.68,18,5,20,0.49
2013-8-10,87.1,81.1,75.4,75.3,62.6,52.2,86,57,31,29.91,29.74,15,5,18,0.00
2013-8-11,89.8,80.1,70.2,68.4,55.2,46.0,70,45,26,30.00,29.88,10,4,15,0.00
2013-8-12,86.5,80.0,75.2,73.7,66.4,52.5,88,66,33,29.91,29.80,15,2,15,0.01
2013-8-13,83.7,78.0,70.3,75.1,68.7,59.6,100,75,45,29.80,29.59,14,4,18,1.54
2013-8-14,77.4,72.3,65.3,64.8,45.1,38.8,66,39,29,29.91,29.62,27,10,28,0.00
2013-8-15,83.1,72.9,63.1,51.1,44.5,40.0,56,38,24,30.03,29.91,18,4,18,0.00
2013-8-16,86.9,76.1,66.9,55.9,48.7,42.0,66,40,24,30.06,30.00,14,2,15,0.00
2013-8-17,85.8,76.6,67.1,57.1,50.7,43.7,67,43,24,30.12,30.06,12,2,13,0.00
2013-8-18,78.3,73.6,68.7,63.3,55.3,44.3,83,54,32,30.12,30.00,12,3,14,0.03
2013-8-19,82.0,75.8,69.4,64.6,57.5,46.3,70,55,30,30.00,29.91,12,3,15,0.00
2013-8-20,92.1,80.8,70.9,67.6,61.8,53.4,87,57,28,30.00,29.94,12,3,14,0.00
2013-8-21,93.4,83.7,74.7,70.2,63.2,50.7,84,54,25,30.03,29.91,12,3,18,0.00
2013-8-22,88.7,80.5,77.0,74.5,70.4,63.5,89,72,46,29.94,29.77,16,4,18,0.37
2013-8-23,79.5,75.9,72.3,69.8,58.1,45.6,79,56,31,29.94,29.77,16,6,19,0.00
2013-8-24,82.8,74.7,66.6,56.9,47.5,40.5,60,40,25,30.21,29.94,14,5,18,0.00
2013-8-25,86.2,76.0,66.4,59.5,51.5,43.1,74,46,24,30.27,30.12,14,3,16,0.00
2013-8-26,88.7,78.5,70.0,64.1,58.3,53.3,72,52,31,30.12,29.80,17,6,23,0.00
2013-8-27,90.1,83.0,75.4,65.2,60.4,54.1,69,48,30,29.80,29.71,22,6,24,0.00
2013-8-28,82.0,77.5,75.2,76.2,72.6,64.6,100,86,56,29.77,29.68,12,1,14,0.76
2013-8-29,82.2,76.5,72.5,74.6,67.7,59.7,100,76,47,29.88,29.74,12,5,18,0.00
2013-8-30,85.8,79.1,73.0,70.8,67.1,64.0,81,68,50,29.88,29.74,12,4,17,0.00
2013-8-31,91.6,82.1,75.2,72.5,69.7,66.0,90,68,44,29.77,29.65,16,6,18,0.00
2013-9-1,93.6,84.4,77.2,74.9,70.0,61.2,88,65,35,29.71,29.62,12,4,15,0.00
2013-9-2,81.7,79.2,73.9,78.4,74.8,69.8,98,87,69,29.65,29.56,11,2,12,1.10
2013-9-3,86.2,78.7,71.8,76.0,60.9,46.3,99,60,28,29.77,29.59,20,6,22,0.00
2013-9-4,84.9,75.3,66.6,56.8,50.4,43.8,70,44,27,29.91,29.77,19,6,22,0.00
2013-9-5,82.6,74.9,67.3,55.1,48.3,36.5,54,40,26,30.00,29.83,18,6,20,0.00
2013-9-6,75.7,67.4,58.5,48.7,38.1,32.4,51,35,23,30.12,30.00,16,5,21,0.00
2013-9-7,82.8,72.6,61.0,60.0,47.6,40.6,70,44,24,30.00,29.80,12,3,16,0.00
2013-9-8,84.9,76.3,67.1,61.9,53.0,36.7,69,46,30,29.94,29.71,21,7,24,0.00
2013-9-9,79.9,70.6,60.1,63.3,48.6,37.8,72,46,34,30.09,29.94,12,4,16,0.00
2013-9-10,88.5,80.1,72.1,73.6,69.0,63.1,89,70,49,30.06,29.94,16,5,18,0.00
2013-9-11,95.5,85.4,77.5,75.7,70.6,64.7,91,64,39,30.00,29.85,17,4,17,0.00
2013-9-12,90.9,81.8,76.6,73.7,69.8,60.2,88,69,44,29.88,29.59,19,6,37,0.06
2013-9-13,78.8,72.4,64.0,70.8,56.1,41.0,93,60,31,29.77,29.53,22,8,26,0.31
2013-9-14,69.4,63.3,58.6,45.9,41.8,37.5,60,46,33,30.03,29.77,21,8,26,0.00
2013-9-15,77.7,67.1,56.7,55.0,44.8,39.6,65,46,28,30.12,29.97,14,3,16,0.00
2013-9-16,72.1,67.4,62.2,60.7,53.3,43.3,88,63,36,30.12,29.91,16,5,20,0.03
2013-9-17,67.1,60.4,52.2,45.4,36.2,30.5,64,42,28,30.30,30.12,23,6,26,0.00
2013-9-18,74.5,65.1,55.0,49.9,40.8,35.7,64,43,26,30.24,30.06,9,2,14,0.00
2013-9-19,78.8,69.4,59.7,55.6,49.0,42.6,75,51,29,30.09,29.94,10,2,13,0.00
2013-9-20,82.9,72.1,63.1,59.4,54.2,47.3,79,56,29,29.97,29.85,12,3,12,0.00
2013-9-21,84.0,72.5,62.4,71.7,58.4,46.4,100,66,28,29.88,29.56,15,4,20,0.69
2013-9-22,72.3,66.6,59.4,68.5,48.5,36.0,98,58,31,29.80,29.56,23,8,25,0.49
2013-9-23,68.9,61.2,54.1,39.4,36.4,33.7,54,40,31,29.94,29.80,20,8,22,0.00
2013-9-24,72.1,62.3,50.9,47.7,40.2,36.3,65,46,30,29.97,29.80,15,5,18,0.00
2013-9-25,74.7,65.9,55.8,52.0,40.5,36.0,61,41,26,29.85,29.74,12,3,15,0.00
2013-9-26,75.9,66.7,58.6,56.8,50.7,44.5,76,58,33,29.97,29.80,8,1,11,0.00
2013-9-27,74.5,66.9,62.2,57.9,49.8,39.2,83,57,30,30.12,29.97,12,3,16,0.00
2013-9-28,74.1,67.5,61.2,53.4,46.7,38.9,75,50,29,30.18,30.09,14,4,19,0.00
2013-9-29,74.7,67.0,59.9,56.3,48.6,42.4,77,54,33,30.09,29.94,14,2,16,0.00
2013-9-30,77.9,68.3,59.2,54.8,47.2,39.4,78,50,29,29.97,29.85,14,2,20,0.00
2013-10-1,82.4,72.4,63.9,57.2,53.3,48.2,71,53,32,29.91,29.80,14,3,18,0.00
2013-10-2,85.5,76.2,66.6,59.6,56.3,52.0,72,52,33,29.91,29.83,18,4,18,0.00
2013-10-3,85.8,76.9,68.9,65.0,56.1,46.4,71,51,27,30.00,29.88,8,2,10,0.00
2013-10-4,89.2,79.1,70.9,66.7,61.7,54.2,84,58,31,29.94,29.85,12,3,14,0.00
2013-10-5,86.9,78.4,71.2,68.5,63.5,57.4,85,62,38,29.94,29.85,10,3,11,0.00
2013-10-6,83.8,74.4,68.7,70.8,66.2,63.3,98,77,52,29.94,29.83,10,3,12,0.00
2013-10-7,79.9,71.0,62.1,72.9,65.5,44.2,97,83,52,29.88,29.65,22,6,26,0.35
2013-10-8,68.5,62.8,56.7,45.8,40.8,36.3,63,46,31,30.18,29.88,15,5,24,0.00
2013-10-9,64.6,60.7,57.2,48.7,42.3,37.7,64,51,43,30.24,30.12,20,9,26,0.00
2013-10-10,63.1,59.0,55.2,60.5,55.0,44.9,100,88,58,30.12,29.88,20,11,25,0.31
2013-10-11,66.2,62.7,59.4,64.4,61.3,57.5,100,96,77,29.91,29.83,21,11,27,1.53
2013-10-12,71.8,66.3,62.4,58.6,48.4,35.3,77,54,36,30.09,29.88,24,11,34,0.00
2013-10-13,70.0,63.4,59.2,56.0,47.1,38.8,76,57,33,30.24,30.09,24,9,28,0.00
2013-10-14,69.8,62.1,54.7,50.7,47.0,40.7,81,60,36,30.24,30.09,12,3,15,0.00
2013-10-15,73.2,63.7,55.9,52.5,45.4,34.5,85,56,27,30.12,29.97,10,3,15,0.00
2013-10-16,73.4,66.2,60.3,61.8,55.9,51.6,88,71,49,29.97,29.80,8,2,12,0.00
2013-10-17,77.7,70.9,66.6,65.1,61.7,56.0,88,74,49,29.80,29.59,14,4,20,0.00
2013-10-18,70.2,64.1,60.1,62.8,40.5,34.2,78,43,31,29.88,29.59,22,7,28,0.00
2013-10-19,68.9,61.8,54.9,58.3,45.7,37.4,84,57,32,29.88,29.65,12,2,24,0.10
2013-10-20,65.3,58.7,51.6,56.5,35.9,30.6,84,44,28,29.97,29.68,26,6,27,0.00
2013-10-21,71.8,61.0,51.8,47.4,39.5,32.5,72,47,27,30.03,29.85,16,3,18,0.00
2013-10-22,69.4,61.1,54.3,52.0,43.0,26.6,79,53,33,29.85,29.68,16,4,25,0.00
2013-10-23,58.8,53.4,49.3,35.9,28.3,25.2,49,38,34,29.71,29.50,22,5,24,0.00
2013-10-24,55.6,49.5,45.3,31.5,25.6,21.0,52,40,28,29.94,29.68,20,7,27,0.00
2013-10-25,57.6,49.0,42.6,28.2,25.7,21.4,51,40,30,30.15,29.94,24,6,27,0.00
2013-10-26,57.7,50.6,43.0,30.6,26.3,22.7,53,39,27,30.15,29.80,20,6,27,0.00
2013-10-27,60.6,53.6,48.0,29.0,26.1,23.7,44,34,27,30.03,29.77,18,6,24,0.00
2013-10-28,65.5,54.0,44.6,34.1,30.5,24.6,58,41,31,30.18,30.03,10,2,14,0.00
2013-10-29,62.1,53.4,45.9,40.5,32.8,27.3,62,46,33,30.27,30.18,10,3,14,0.00
2013-10-30,59.2,54.0,48.7,55.8,48.0,39.2,95,81,62,30.21,30.06,6,0,6,0.03
2013-10-31,68.4,61.9,55.0,64.2,57.0,54.1,100,85,63,30.09,29.68,12,2,18,0.03
2013-11-1,68.9,65.7,61.0,65.3,60.9,51.6,100,85,56,29.68,29.44,26,6,32,0.14
2013-11-2,70.2,61.6,55.9,61.0,43.1,32.0,100,55,31,29.68,29.50,18,3,25,0.00
2013-11-3,56.7,49.4,38.5,38.8,26.4,12.7,63,42,28,30.36,29.68,24,9,28,0.00
2013-11-4,49.6,41.5,34.7,21.6,15.5,11.3,41,35,27,30.53,30.36,18,6,20,0.00
2013-11-5,60.1,50.1,41.0,41.1,31.1,20.3,68,49,35,30.50,30.36,10,2,12,0.00
2013-11-6,67.6,57.0,48.6,56.2,44.5,39.5,92,65,37,30.39,29.94,14,2,14,0.00
2013-11-7,61.9,57.2,48.9,61.0,50.8,29.1,100,80,46,29.94,29.68,22,7,25,0.04
2013-11-8,51.6,46.5,42.4,29.1,22.2,19.3,48,38,32,30.15,29.85,25,8,29,0.04
2013-11-9,53.4,46.4,39.2,33.9,24.4,20.2,62,43,31,30.21,29.88,13,3,18,0.00
2013-11-10,60.8,51.4,45.1,33.8,27.3,20.1,60,41,28,30.00,29.77,25,7,29,0.00
2013-11-11,56.8,50.7,43.7,32.6,25.0,20.6,48,37,30,30.12,29.85,22,8,26,0.00
2013-11-12,52.2,41.2,33.8,32.6,18.7,9.6,73,41,31,30.21,29.83,23,10,32,0.00
2013-11-13,39.2,34.9,30.6,14.8,11.6,7.1,39,38,31,30.27,30.21,17,6,27,0.00
2013-11-14,56.3,45.1,35.6,25.1,16.8,10.4,47,32,25,30.18,30.09,19,7,20,0.00
2013-11-15,56.8,48.0,40.3,34.0,28.5,24.5,71,48,30,30.15,30.03,9,1,12,0.00
2013-11-16,59.4,52.2,47.1,49.0,43.1,30.0,87,72,49,30.24,30.12,10,1,11,0.01
2013-11-17,66.7,59.4,52.5,62.4,53.9,48.8,100,83,59,30.12,29.59,16,3,16,0.00
2013-11-18,68.2,60.9,50.7,62.8,37.4,18.0,100,47,26,29.74,29.50,22,9,35,0.28
2013-11-19,50.7,45.7,37.6,22.5,17.5,12.9,39,32,29,30.24,29.74,31,11,33,0.00
2013-11-20,47.7,40.0,34.5,17.5,13.6,8.2,48,34,27,30.47,30.24,14,4,18,0.00
2013-11-21,53.8,45.8,35.6,37.2,25.7,8.1,60,46,29,30.47,30.24,12,3,15,0.00
2013-11-22,57.0,53.3,49.8,54.1,48.1,37.0,98,83,60,30.24,29.83,22,3,24,0.03
2013-11-23,53.6,43.7,32.2,47.6,21.0,6.3,80,41,31,29.97,29.85,38,12,38,0.00
2013-11-24,32.4,28.6,25.2,6.5,1.9,-0.5,33,31,31,30.33,29.97,38,14,40,0.00
2013-11-25,38.8,31.6,25.2,14.7,8.0,0.2,43,37,31,30.42,30.24,15,5,17,0.00
2013-11-26,41.7,38.4,34.9,41.7,26.3,13.1,100,67,37,30.21,29.47,12,3,18,0.65
2013-11-27,58.5,42.2,32.9,58.5,36.7,12.3,100,83,42,29.77,29.26,33,10,34,1.71
2013-11-28,37.2,33.7,30.9,14.0,12.0,10.2,44,40,38,30.36,29.80,26,8,32,0.00
2013-11-29,43.2,35.1,30.4,18.0,14.0,11.0,57,42,34,30.62,30.36,20,4,20,0.00
2013-11-30,40.6,34.9,27.0,22.9,15.8,5.9,52,45,40,30.62,30.21,13,4,20,0.00
2013-12-1,49.8,42.5,34.9,27.9,24.9,22.2,64,50,38,30.21,29.88,12,1,14,0.00
2013-12-2,49.8,44.9,42.3,31.5,26.2,22.5,61,48,35,29.88,29.77,6,0,7,0.00
2013-12-3,55.4,46.7,43.2,38.6,33.0,28.0,80,60,38,29.88,29.77,9,1,10,0.00
2013-12-4,52.2,47.7,41.0,46.0,36.0,32.3,85,64,49,29.97,29.88,8,1,10,0.00
2013-12-5,59.2,55.0,49.5,59.2,54.9,46.2,100,100,86,29.97,29.80,9,1,12,0.00
2013-12-6,61.3,49.8,39.7,61.3,47.4,34.2,100,91,72,30.03,29.74,17,6,23,0.75
2013-12-7,40.8,37.9,33.3,38.4,24.9,14.2,95,61,43,30.39,29.97,18,7,23,0.09
2013-12-8,33.1,30.7,28.8,32.9,21.0,9.8,100,71,41,30.47,30.15,18,6,18,0.00
2013-12-9,38.8,36.4,32.7,38.8,36.4,32.7,100,100,100,30.15,29.88,13,4,17,0.94
2013-12-10,36.3,34.1,29.8,36.3,30.5,18.1,100,87,58,30.06,29.80,15,2,16,0.22
2013-12-11,36.3,30.8,27.0,19.0,15.3,12.2,64,52,40,30.27,30.06,18,2,18,0.01
2013-12-12,31.3,27.3,25.2,16.2,9.3,4.3,62,47,38,30.27,30.06,17,6,24,2.02
2013-12-13,38.7,32.1,26.1,19.4,10.6,4.5,55,40,34,30.21,30.06,18,6,25,0.00
2013-12-14,35.4,32.9,30.9,35.4,26.1,16.3,100,78,50,30.30,29.50,21,6,24,0.24
2013-12-15,40.3,36.0,32.7,37.6,28.0,16.8,100,75,48,29.77,29.44,25,5,28,0.40
2013-12-16,34.0,29.9,26.6,18.3,7.7,3.9,53,39,33,30.12,29.77,21,7,33,0.00
2013-12-17,35.2,29.4,26.1,30.0,17.4,5.5,85,63,36,30.09,29.83,12,3,15,0.02
2013-12-20,50.7,48.6,47.3,45.7,36.8,27.9,89,65,41,29.88,29.85,7,1,7,0.00
2013-12-21,64.2,55.3,48.4,57.8,49.1,45.3,95,81,52,29.88,29.77,17,4,25,0.00
2013-12-22,65.7,62.4,58.8,65.2,60.7,56.8,100,94,83,29.85,29.71,21,7,26,0.08
2013-12-23,61.5,55.6,42.8,61.5,51.2,26.4,100,86,52,30.06,29.80,24,6,28,0.63
2013-12-24,42.6,36.5,28.2,26.2,14.6,6.4,53,40,37,30.27,30.00,21,11,32,0.00
2013-12-25,33.3,28.7,22.8,13.4,5.7,0.6,48,37,33,30.45,30.27,18,5,22,0.00
2013-12-26,41.7,33.5,27.9,22.1,18.1,13.2,64,53,39,30.27,30.06,18,2,28,0.00
2013-12-27,47.8,37.8,31.3,21.0,17.0,14.4,58,43,30,30.27,30.15,17,3,22,0.00
2013-12-28,57.2,43.9,34.9,28.2,23.7,20.3,68,47,30,30.18,29.94,20,4,24,0.00
2013-12-29,47.3,44.6,42.4,47.3,35.9,24.6,100,75,45,29.94,29.32,18,4,19,1.27
2013-12-30,45.5,39.8,30.4,42.1,26.6,8.4,95,62,39,30.06,29.65,23,7,25,0.00
2013-12-31,38.1,32.2,27.0,21.9,11.8,6.5,53,42,36,30.21,29.94,21,6,25,0.00
2014-1-1,41.0,34.1,28.4,17.2,13.0,6.5,49,41,36,30.30,30.06,16,3,18,0.00
2014-1-2,35.2,31.0,22.8,26.2,23.0,17.2,92,73,49,30.06,29.50,19,9,24,0.00